[[{"header":{"parameterUnit":"m.s-1","parameterCategory":1,"la1":30.2991,"la2":30.254,"lo1":-89.0895,"lo2":-89.0444,"dy":0.0017,"dx":0.0017,"nx":28,"ny":28,"refTime":"2025-01-30T03:00:00:Z","depth":0,"parameterNumber":2,"parameterNumberName":"U-component_of_WINDS"},"data":[0,0,0,0,0,0,0,0,0,0,0,0,0,0,0,0,0,0,0,0,0,0,0,0,0,0,0,0,0,0,0,0,0,0,0,0,0,0,0,0,0,0,0,0,0,0,0,0,0,0,0,0,0,0,0,0,0,0,-3.8517,-3.8519,0,-3.867,-3.8672,-3.8673,-3.8708,-3.8707,-3.8706,-3.8705,-3.8861,-3.8866,-3.8871,0,0,0,0,0,0,0,0,0,0,0,0,0,-3.8256,-3.826,-3.8517,-3.8519,-3.8521,-3.867,-3.8672,-3.8674,-3.8708,-3.8707,-3.8705,-3.8704,-3.8859,-3.8865,-3.8872,0,0,0,0,0,0,0,0,0,0,0,0,0,-3.8385,-3.8262,-3.8517,-3.8556,-3.8561,-3.8669,-3.8672,-3.8674,-3.8708,-3.8707,-3.8705,-3.8703,-3.8857,-3.8865,-3.8873,-3.8953,0,0,-3.8896,-3.89,0,0,0,0,0,0,0,0,-3.8378,-3.8394,-3.8548,-3.8553,-3.8559,-3.8668,-3.8637,-3.8768,-3.8709,-3.8652,-3.8704,-3.8703,-3.8798,-3.8811,-3.8843,-3.896,-3.8967,-3.8897,-3.8902,-3.8905,-3.8907,0,0,0,0,0,0,0,-3.8369,-3.8388,-3.8577,-3.855,-3.8557,-3.8566,-3.8583,-3.8662,-3.8732,-3.8657,-3.866,-3.8677,-3.8801,-3.8835,-3.8847,-3.8969,-3.8897,-3.8904,-3.8908,-3.8911,-3.916,-3.9162,0,0,0,0,0,0,-3.8353,-3.838,-3.8573,-3.8582,-3.8462,-3.8572,-3.8591,-3.8635,-3.8732,-3.8745,-3.8679,-3.8678,-3.8823,-3.8838,-3.8852,-3.8952,-3.8905,-3.8912,-3.8917,-3.9158,-3.9161,-3.9163,0,0,0,0,0,0,-3.8347,-3.8369,-3.8566,-3.8482,-3.8508,-3.8578,-3.8628,-3.8639,-3.8673,-3.8748,-3.8761,-3.8701,-3.8822,-3.8842,-3.8928,-3.8958,-3.8916,-3.8923,-3.9156,-3.9159,-3.9162,-3.9153,0,0,0,0,0,0,-3.8339,-3.8367,-3.8398,-3.8483,-3.8512,-3.8639,-3.863,-3.8643,-3.8686,-3.8687,-3.8772,-3.8785,-3.8822,-3.8916,-3.8935,-3.8968,-3.8929,-3.9153,-3.9157,-3.9161,-3.915,-3.9155,-3.9159,0,0,0,0,0,-3.833,-3.839,-3.8399,-3.8422,-3.8552,-3.864,-3.8657,-3.8699,-3.8689,-3.872,-3.8769,-3.8782,-3.8952,-3.8924,-3.8947,-3.8982,-3.9152,-3.9156,-3.916,-3.9149,-3.9154,-3.9159,0,0,0,0,0,0,-3.8307,-3.8401,-3.8413,-3.8502,-3.8563,-3.8646,-3.8687,-3.8704,-3.8769,-3.8767,-3.8817,-3.8836,-3.8919,-3.896,-3.8927,-3.9065,-3.9052,-3.9061,-3.9035,-3.9041,-3.9045,-3.9032,-3.8935,0,0,0,0,0,-3.8312,-3.8375,-3.8455,-3.8525,-3.8555,-3.8616,-3.8656,-3.8683,-3.8748,-3.8774,-3.8829,-3.8892,-3.8959,-3.9003,-3.9069,-3.9157,-3.9176,-3.9193,-3.9197,-3.92,-3.9207,-3.9256,-3.9264,-3.9177,-3.9177,-3.9177,0,0,-3.8323,-3.8383,-3.842,-3.8522,-3.8573,-3.8637,-3.8637,-3.8706,-3.8754,-3.8785,-3.8869,-3.8911,-3.8985,-3.9072,-3.9113,-3.9109,-3.9235,-3.9206,-3.9207,-3.9213,-3.9262,-3.927,-3.9277,-3.918,-3.918,-3.9179,0,0,-3.8376,-3.8428,-3.8492,-3.8543,-3.8619,-3.866,-3.8675,-3.8756,-3.8785,-3.8871,-3.8895,-3.8954,-3.907,-3.9121,-3.9162,-3.9236,-3.9251,-3.9257,-3.9277,-3.9325,-3.9332,-3.9338,-3.9364,-3.9372,-3.9264,-3.9264,-3.9264,0,-3.8381,-3.8479,-3.8523,-3.8591,-3.8635,-3.8666,-3.8732,-3.8779,-3.8873,-3.8903,-3.8897,-3.9043,-3.9094,-3.9194,-3.9212,-3.9245,-3.9264,-3.9246,-3.9327,-3.9334,-3.9341,-3.9365,-3.9375,-3.9264,-3.9264,-3.9264,-3.9264,0,-3.848,-3.8547,-3.859,-3.868,-3.873,-3.8796,-3.8851,-3.8896,-3.8919,-3.896,-3.9047,-3.9111,-3.919,-3.9217,-3.924,-3.932,-3.9315,-3.9317,-3.9304,-3.9348,-3.9372,-3.9382,-3.9264,-3.9264,-3.9264,-3.9264,0,0,-3.8521,-3.8635,-3.865,-3.8691,-3.8778,-3.8832,-3.89,-3.8978,-3.9015,-3.908,-3.9137,-3.9235,-3.9238,-3.9285,-3.9315,-3.9357,-3.9411,-3.9355,-3.9358,-3.9362,-3.9502,-3.9498,-3.9508,-3.9422,-3.9424,-3.9426,-3.9495,0,-3.8583,-3.8705,-3.8748,-3.8848,-3.8911,-3.8942,-3.9002,-3.9062,-3.9102,-3.9162,-3.9207,-3.9275,-3.9275,-3.9303,-3.9346,-3.9395,-3.944,-3.9391,-3.9476,-3.9478,-3.9454,-3.9521,-3.9517,-3.9579,-3.9505,-3.9507,-3.9508,0,-3.8672,-3.8737,-3.8844,-3.8923,-3.8951,-3.9004,-3.9079,-3.9136,-3.9205,-3.9232,-3.9284,-3.9312,-3.9384,-3.9369,-3.9469,-3.9435,-3.9473,-3.9503,-3.9506,-3.9514,-3.9494,-3.9529,-3.9601,-3.9609,-3.9524,-3.9522,-3.9521,0,-3.8689,-3.8804,-3.8883,-3.8917,-3.9012,-3.9048,-3.909,-3.9157,-3.9202,-3.9268,-3.9297,-3.9371,-3.9411,-3.9468,-3.9515,-3.9499,-3.9611,-3.9599,-3.9635,-3.9633,-3.9655,-3.9653,-3.9731,-3.9682,-3.9682,-3.9682,-3.9682,0,-3.8754,-3.8817,-3.8892,-3.894,-3.9012,-3.9061,-3.9132,-3.9175,-3.9235,-3.9293,-3.9326,-3.9379,-3.9438,-3.9499,-3.9537,-3.9614,-3.9632,-3.9655,-3.9664,-3.9652,-3.9648,-3.9675,-3.9672,-3.9684,-3.9684,-3.9683,-3.9683,0,-3.8784,-3.8837,-3.8924,-3.9007,-3.903,-3.9079,-3.9151,-3.9199,-3.9242,-3.9314,-3.9334,-3.9401,-3.9474,-3.9527,-3.9622,-3.9648,-3.973,-3.974,-3.9706,-3.971,-3.9742,-3.9738,-3.984,-3.9855,-3.9797,-3.9797,-3.9798,0,-3.8821,-3.887,-3.8959,-3.9,-3.9041,-3.9106,-3.9151,-3.9203,-3.9249,-3.9332,-3.937,-3.9446,-3.9509,-3.9625,-3.9683,-3.9756,-3.9766,-3.9797,-3.9777,-3.9763,-3.9765,-3.9761,-3.9766,-3.9799,-3.98,-3.98,-3.98,0,-3.888,-3.8904,-3.8968,-3.9041,-3.9094,-3.9155,-3.9216,-3.9247,-3.9309,-3.936,-3.9435,-3.9484,-3.9582,-3.9656,-3.9735,-3.9779,-3.98,-3.9806,-3.9818,-3.9804,-3.9782,-3.9794,-3.9712,-3.9803,-3.9803,-3.9803,-3.9802,-3.9802,-3.8914,-3.8959,-3.9028,-3.9099,-3.915,-3.9206,-3.9255,-3.9305,-3.9368,-3.9451,-3.9478,-3.9556,-3.9625,-3.9733,-3.9778,-3.984,-3.9839,-3.9856,-3.986,-3.9863,-3.9862,-3.9774,-3.9855,-3.9855,-3.9855,-3.9855,-3.9855,0,-3.8973,-3.902,-3.9084,-3.9168,-3.9223,-3.9239,-3.9308,-3.9353,-3.9421,-3.9484,-3.9545,-3.9632,-3.9706,-3.9769,-3.9845,-3.9883,-3.9894,-3.9901,-3.9898,-3.9907,-3.9859,-3.9841,-3.989,-3.989,-3.989,-3.989,-3.989,-3.989,-3.901,-3.9088,-3.912,-3.9223,-3.927,-3.9346,-3.9384,-3.9436,-3.9486,-3.9582,-3.9642,-3.9684,-3.9747,-3.9828,-3.9896,-3.9913,-3.9939,-3.9942,-3.9961,-3.9915,-3.9911,-3.9906,-3.9889,-3.9948,-3.9948,-4.0004,-4.0005,-4.0005]},{"header":{"parameterUnit":"m.s-1","parameterCategory":1,"la1":30.2991,"la2":30.254,"lo1":-89.0895,"lo2":-89.0444,"dy":0.0017,"dx":0.0017,"nx":28,"ny":28,"refTime":"2025-01-30T03:00:00:Z","depth":0,"parameterNumber":3,"parameterNumberName":"V-component_of_WINDS"},"data":[0,0,0,0,0,0,0,0,0,0,0,0,0,0,0,0,0,0,0,0,0,0,0,0,0,0,0,0,0,0,0,0,0,0,0,0,0,0,0,0,0,0,0,0,0,0,0,0,0,0,0,0,0,0,0,0,0,0,4.095,4.0951,0,4.1056,4.1057,4.1058,4.1083,4.1083,4.1082,4.1081,4.1191,4.1195,4.1198,0,0,0,0,0,0,0,0,0,0,0,0,0,4.0773,4.0776,4.095,4.0951,4.0952,4.1056,4.1057,4.1059,4.1084,4.1083,4.1082,4.1081,4.119,4.1194,4.1199,0,0,0,0,0,0,0,0,0,0,0,0,0,4.0862,4.0777,4.095,4.0977,4.0981,4.1055,4.1057,4.1059,4.1084,4.1083,4.1082,4.1081,4.1189,4.1194,4.1199,4.1254,0,0,4.1216,4.1218,0,0,0,0,0,0,0,0,4.0856,4.0868,4.0972,4.0976,4.098,4.1055,4.1035,4.1124,4.1084,4.1045,4.1081,4.108,4.1147,4.1156,4.1178,4.1259,4.1264,4.1216,4.1219,4.1222,4.1223,0,0,0,0,0,0,0,4.085,4.0864,4.0992,4.0973,4.0978,4.0986,4.0997,4.1052,4.1101,4.1048,4.105,4.1062,4.1149,4.1173,4.1181,4.1265,4.1216,4.1221,4.1224,4.1226,4.1402,4.1403,0,0,0,0,0,0,4.0839,4.0858,4.0988,4.0995,4.0914,4.099,4.1003,4.1032,4.11,4.1109,4.1063,4.1063,4.1164,4.1174,4.1185,4.1257,4.1222,4.1227,4.123,4.14,4.1402,4.1404,0,0,0,0,0,0,4.0835,4.085,4.0984,4.0927,4.0945,4.0994,4.1027,4.1035,4.1059,4.1111,4.112,4.1078,4.1164,4.1177,4.1238,4.1261,4.1229,4.1234,4.1399,4.1401,4.1403,4.1399,0,0,0,0,0,0,4.083,4.0849,4.0869,4.0928,4.0948,4.1034,4.1028,4.1038,4.1068,4.1069,4.1128,4.1137,4.1164,4.1229,4.1243,4.1268,4.1238,4.1397,4.14,4.1402,4.1397,4.1401,4.1404,0,0,0,0,0,4.0823,4.0863,4.087,4.0885,4.0974,4.1035,4.1047,4.1077,4.1069,4.1091,4.1126,4.1135,4.1256,4.1235,4.1251,4.1277,4.1396,4.1399,4.1402,4.1396,4.14,4.1403,0,0,0,0,0,0,4.0805,4.0871,4.0879,4.0938,4.0981,4.1039,4.1067,4.1079,4.1125,4.1124,4.116,4.1173,4.1232,4.1261,4.1237,4.1336,4.1326,4.1332,4.1316,4.132,4.1323,4.1316,4.1243,0,0,0,0,0,4.0808,4.0851,4.0907,4.0954,4.0975,4.1017,4.1045,4.1065,4.111,4.1129,4.1167,4.1212,4.1261,4.1292,4.1339,4.1401,4.1417,4.1427,4.1431,4.1433,4.1439,4.1478,4.1484,4.1414,4.1414,4.1414,0,0,4.0814,4.0855,4.088,4.0951,4.0986,4.1033,4.1032,4.108,4.1115,4.1136,4.1196,4.1226,4.1279,4.1342,4.1371,4.1367,4.1462,4.1437,4.1439,4.1443,4.1482,4.1488,4.1494,4.1417,4.1416,4.1416,0,0,4.085,4.0884,4.0929,4.0965,4.1019,4.1047,4.1058,4.1115,4.1137,4.1198,4.1216,4.1258,4.134,4.1378,4.1408,4.1462,4.1473,4.1476,4.1493,4.1531,4.1536,4.1542,4.1564,4.1571,4.1481,4.1481,4.1481,0,4.0851,4.0919,4.095,4.0998,4.103,4.1052,4.1099,4.1133,4.1199,4.1222,4.1216,4.1322,4.1359,4.1433,4.1446,4.1469,4.1484,4.147,4.1533,4.1538,4.1544,4.1566,4.1574,4.1481,4.1481,4.1481,4.1481,0,4.092,4.0968,4.0998,4.1063,4.1098,4.1145,4.1185,4.1217,4.1235,4.1265,4.1329,4.1374,4.1432,4.1451,4.1467,4.1529,4.1525,4.1526,4.1516,4.155,4.1572,4.158,4.1482,4.1482,4.1481,4.1481,0,0,4.0945,4.1029,4.104,4.1071,4.1134,4.1172,4.1222,4.128,4.1308,4.1354,4.1399,4.1469,4.1471,4.1505,4.1527,4.156,4.1604,4.1557,4.1559,4.1567,4.1678,4.1679,4.1688,4.1612,4.1613,4.1615,4.1675,0,4.0991,4.108,4.111,4.1185,4.1231,4.1254,4.1298,4.1343,4.1373,4.1418,4.1451,4.1502,4.1499,4.1521,4.1554,4.1591,4.1627,4.1587,4.1656,4.1658,4.1644,4.1698,4.1699,4.1753,4.1683,4.1685,4.1686,0,4.1055,4.1103,4.1182,4.1243,4.1264,4.1302,4.136,4.1402,4.1454,4.1474,4.1514,4.1534,4.1589,4.1575,4.1654,4.1626,4.1656,4.1679,4.1682,4.1691,4.1675,4.1712,4.1771,4.178,4.1698,4.1697,4.1696,0,4.1069,4.1154,4.1213,4.1239,4.131,4.1338,4.1369,4.142,4.1454,4.1504,4.1527,4.1583,4.1614,4.1658,4.1694,4.168,4.1771,4.1759,4.1791,4.1791,4.181,4.1809,4.1878,4.1826,4.1825,4.1825,4.1825,0,4.1117,4.1166,4.1221,4.1258,4.1314,4.135,4.1405,4.1437,4.1483,4.1529,4.1551,4.1594,4.1637,4.1686,4.1714,4.1777,4.179,4.1809,4.1817,4.1809,4.1807,4.183,4.1828,4.1828,4.1827,4.1827,4.1826,0,4.1143,4.1181,4.1249,4.1311,4.1329,4.1368,4.1422,4.146,4.1492,4.1549,4.1565,4.1615,4.1674,4.1714,4.1788,4.1808,4.1877,4.1882,4.186,4.1864,4.1895,4.1893,4.1983,4.1998,4.1933,4.1934,4.1934,0,4.1172,4.121,4.1278,4.131,4.1342,4.1392,4.1428,4.1466,4.1502,4.1567,4.1598,4.1658,4.1708,4.1802,4.1846,4.1905,4.1913,4.1941,4.1922,4.1914,4.1917,4.1916,4.1921,4.1944,4.1945,4.1945,4.1945,0,4.1221,4.1239,4.1289,4.1347,4.1389,4.1436,4.1484,4.1509,4.1556,4.1596,4.1657,4.1696,4.1774,4.1835,4.1898,4.1932,4.1948,4.1951,4.1962,4.1955,4.1942,4.1953,4.1871,4.1949,4.1949,4.1948,4.1948,4.1948,4.1251,4.1288,4.1342,4.1398,4.1439,4.1484,4.1523,4.1561,4.1613,4.1679,4.1699,4.1763,4.1818,4.1905,4.194,4.1992,4.199,4.2005,4.2009,4.2013,4.2015,4.1932,4.2003,4.2003,4.2003,4.2003,4.2003,0,4.1304,4.1341,4.1392,4.1459,4.1504,4.1515,4.1569,4.1607,4.1663,4.1713,4.1763,4.1835,4.1895,4.1945,4.2008,4.204,4.2049,4.2056,4.2055,4.2063,4.2012,4.1997,4.2048,4.2048,4.2047,4.2047,4.2047,4.2047,4.1337,4.14,4.1425,4.1511,4.1548,4.1611,4.1642,4.1684,4.1725,4.1804,4.1855,4.1887,4.1938,4.2006,4.2062,4.2076,4.2099,4.2104,4.212,4.2071,4.2066,4.2061,4.2048,4.2108,4.2108,4.2167,4.2168,4.2168]}]]